User: anonymous   Login
Location: Unspecified
(0.0000°N, 0.0000°E)
Time: 10:18:27
(UTC+00:00)
Language:

Nova 1 - Orbit

View from above orbital plane
View from above orbital plane
View from above satellite
View from above satellite

Ground track
Ground track

The orbit data is extracted from the following two-line orbital elements,

1 12458U 81044A   17294.94437347 +.00000028 +00000-0 +45560-4 0  9995
2 12458 089.9462 120.8898 0015196 029.4018 131.3382 13.22972143758625
Epoch (UTC): 21 October 2017 22:39:53
Eccentricity: 0.0015196
inclination: 89.9462°
perigee height: 1162 km
apogee height: 1185 km
right ascension of ascending node: 120.8898°
argument of perigee: 29.4018°
revolutions per day: 13.22972143
mean anomaly at epoch: 131.3382°
orbit number at epoch: 75862

The dashed part of the orbit path shows where the satellite is in the earth's shadow,  

DLR